Weather in Borisovka

Russia / Primorsky Krai     43°48′17″N   131°48′44″E
В апреле 2022 года жителям России запретили посещать сайт meteo.paraplan.net по решению Генеральной прокуратуры. Аудитория сайта уменьшилась в 10 раз. Владельцы сайта не видят смысла в поддержке погодного сервера в таких условиях. Сайт будет закрыт в октябре.
temp.,
°C
wind,
m/s
gust,
m/s
humid.,
%
clouds,
%
prec.,
mm/h
press.,
hPa
HPBL,
m
4 october, tue
tue401:00+7n81291100 4.2 1016840
04:00+4n81490100 5.3 10181021
07:00+4n613796 0.1 10191184
10:00+6n813530 0.1 10191354
13:00+9n8123498 0.0 10182420
16:00+10nnw8123369 0.0 10172573
19:00+6nnw511372 0.0 1020565
22:00+4nw512400 0.0 1022569
5 october, wed
wed501:00+2wnw412430 0.0 1023426
04:00+2wnw410430 0.0 1024284
07:000wnw37470 0.0 1024164
10:00+6nw48330 0.0 1025959
13:00+9nnw57255 0.0 10232407
16:00+10nw582579 0.0 10212823
19:00+6wnw1138100 0.0 102210
22:00+5w364398 0.0 1024127
6 october, thu
thu601:00+3wsw25520 0.0 102678
04:00+1wsw24600 0.0 102672
07:00+1w22570 0.0 102738
10:00+7nw35380 0.0 1027499
13:00+10nw45270 0.0 10262059
16:00+11n252514 0.0 10242558
19:00+6s224094 0.0 102428
22:00+5s3455100 0.0 102568
7 october, fri
fri701:00+5s1259100 0.0 102519
04:00+4w1162100 0.0 102510
07:00+3w1158100 0.0 102510
10:00+8nw23450 0.0 1026413
13:00+12nw352935 0.0 10252459
16:00+13nnw252815 0.0 10242295
19:00+8nw224216 0.0 102510
22:00+5sw11500 0.0 102712
8 october, sat
sat801:00+4w11530 0.0 102710
04:00+3wnw11570 0.0 102710
07:00+2w11605 0.0 102810
10:00+8se0146100 0.0 1029247
13:00+12ese223475 0.0 1027963
16:00+14se33315 0.0 10251469
19:00+8s365761 0.0 1026114
22:00+6s238067 0.0 102651